FW9014 Weather Reports


time (UTC)temp
C
wind
direction
speed
KPH
gust
KPH
rain 1hr
cm
rain 24hr
cm
rain mn
cm
humidity
%
barometer
mb
20260509211549 28 267 3.2 6.4 0.00 0.00 0.00 75 1008.8
20260509204552 28 285 3.2 8.0 0.00 0.00 0.00 77 1009.0
20260509203058 27 316 3.2 8.0 0.00 0.00 0.00 79 1009.3
20260509201554 28 5 6.4 9.7 0.00 0.00 0.00 76 1009.3
20260509200049 29 329 3.2 6.4 0.00 0.00 0.00 72 1009.6
20260509194553 30 0 0.0 1.6 0.00 0.03 0.00 72 1009.6
20260509193053 29 0 0.0 6.4 0.00 0.03 0.00 73 1009.9
20260509191550 29 212 3.2 6.4 0.00 0.03 0.00 73 1010.0
20260509190048 28 202 3.2 6.4 0.00 0.03 0.00 74 1010.1
20260509184553 27 200 3.2 4.8 0.00 0.03 0.00 78 1010.4
20260509183054 26 192 4.8 8.0 0.00 0.03 0.00 83 1010.6
20260509181559 26 202 8.0 9.7 0.00 0.03 0.00 84 1010.8
20260509180055 25 279 1.6 3.2 0.00 0.03 0.00 85 1010.9
20260509174548 25 0 0.0 1.6 0.00 0.03 0.00 89 1011.1
20260509173049 24 355 3.2 8.0 0.00 0.03 0.00 92 1011.2
20260509171551 24 0 0.0 0.0 0.00 0.03 0.00 96 1011.2
20260509170051 23 164 3.2 8.0 0.00 0.03 0.00 96 1011.0
20260509164545 23 0 0.0 6.4 0.00 0.03 0.00 96 1011.2
20260509163052 23 355 3.2 6.4 0.00 0.03 0.00 96 1011.5
20260509161548 23 0 0.0 0.0 0.00 0.03 0.00 96 1011.7
20260509160049 23 0 0.0 4.8 0.00 0.03 0.00 96 1011.7
20260509154547 23 150 1.6 4.8 0.00 0.03 0.00 96 1011.8
20260509153059 22 150 1.6 8.0 0.00 0.03 0.00 97 1011.8
20260509151549 22 189 4.8 8.0 0.00 0.03 0.00 97 1011.4
20260509150050 22 0 0.0 4.8 0.00 0.03 0.00 96 1011.2
20260509144546 22 0 0.0 3.2 0.00 0.03 0.00 96 1010.8
20260509143050 22 0 3.2 14.5 0.00 0.03 0.00 96 1010.5
20260509141546 22 209 11.3 16.1 0.00 0.03 0.00 97 1010.3
20260509140052 22 190 11.3 16.1 0.00 0.03 0.00 96 1010.3
20260509134549 22 180 8.0 11.3 0.00 0.03 0.00 96 1010.8
20260509133048 22 195 9.7 12.9 0.00 0.03 0.00 96 1011.1
20260509131548 22 207 8.0 11.3 0.00 0.03 0.00 96 1011.3
20260509130047 22 248 0.0 1.6 0.00 0.03 0.00 96 1011.4
20260509124547 22 0 0.0 0.0 0.00 0.03 0.00 96 1011.4
20260509123053 22 0 0.0 0.0 0.00 0.03 0.00 96 1011.3
20260509121548 22 0 1.6 8.0 0.00 0.03 0.00 96 1011.1
20260509120058 22 177 4.8 9.7 0.00 0.03 0.00 96 1011.0
20260509114547 22 163 4.8 9.7 0.00 0.03 0.00 96 1010.8
20260509113045 22 192 4.8 8.0 0.00 0.03 0.00 96 1010.8
20260509111546 22 0 0.0 4.8 0.00 0.03 0.00 96 1010.1
20260509110053 22 207 1.6 8.0 0.00 0.03 0.00 96 1009.8
20260509104546 22 202 6.4 11.3 0.00 0.03 0.00 96 1010.1
20260509103051 22 144 6.4 9.7 0.00 0.03 0.00 96 1010.2
20260509101554 22 94 0.0 3.2 0.00 0.03 0.00 96 1010.6
20260509100046 22 0 0.0 0.0 0.00 0.03 0.00 96 1010.5
20260509094545 22 0 0.0 1.6 0.00 0.03 0.00 96 1010.4
20260509093048 22 0 0.0 3.2 0.00 0.03 0.00 96 1010.4
20260509091609 22 221 3.2 6.4 0.00 0.03 0.00 96 1010.5
20260509090048 22 214 4.8 8.0 0.00 0.03 0.00 96 1010.6
20260509084549 22 180 4.8 8.0 0.00 0.03 0.00 96 1010.5
20260509083052 22 168 4.8 9.7 0.00 0.03 0.00 96 1010.6
20260509081546 22 171 6.4 9.7 0.00 0.03 0.00 96 1010.7
20260509080059 22 152 3.2 12.9 0.00 0.03 0.00 95 1010.6
20260509074554 22 140 1.6 11.3 0.00 0.03 0.00 95 1010.7
20260509073115 22 163 12.9 17.7 0.00 0.03 0.00 95 1010.7
20260509071547 22 184 11.3 14.5 0.00 0.03 0.00 95 1010.8
20260509070048 22 178 9.7 14.5 0.00 0.03 0.00 95 1010.9
20260509064549 22 150 9.7 14.5 0.00 0.03 0.00 95 1010.8
20260509063049 21 176 11.3 19.3 0.00 0.03 0.00 95 1011.0
20260509061556 22 186 12.9 20.9 0.00 0.03 0.00 95 1010.9
20260509060105 21 173 12.9 17.7 0.00 0.03 0.00 94 1011.0
20260509054558 21 183 12.9 17.7 0.00 0.03 0.00 94 1011.1
20260509053054 22 169 14.5 17.7 0.00 0.03 0.00 94 1011.1
20260509051549 22 173 11.3 17.7 0.00 0.03 0.00 94 1011.3
20260509050055 21 163 12.9 17.7 0.00 0.03 0.00 94 1011.2
20260509044548 21 165 12.9 17.7 0.00 0.03 0.03 93 1011.1
20260509043049 22 157 9.7 17.7 0.00 0.03 0.03 93 1011.2
20260509041549 22 162 12.9 19.3 0.00 0.03 0.03 93 1011.3
20260509040124 22 171 16.1 25.7 0.00 0.03 0.03 93 1011.1
20260509034550 22 174 20.9 27.4 0.00 0.03 0.03 93 1011.0
20260509033047 22 171 19.3 25.7 0.00 0.03 0.03 92 1010.6
20260509031547 22 169 16.1 22.5 0.00 0.03 0.03 91 1010.7
20260509030051 22 165 16.1 22.5 0.00 0.03 0.03 91 1010.6
20260509024555 22 165 19.3 29.0 0.00 0.03 0.03 91 1010.2
20260509023047 22 166 20.9 29.0 0.00 0.03 0.03 90 1010.1
20260509021547 22 167 17.7 24.1 0.00 0.03 0.03 89 1010.1
20260509020049 22 128 4.8 17.7 0.00 0.03 0.03 87 1009.9
20260509014544 22 147 6.4 12.9 0.00 0.03 0.03 86 1010.1
20260509013059 23 163 6.4 12.9 0.00 0.03 0.03 86 1010.1
20260509011558 23 138 14.5 19.3 0.00 0.03 0.03 86 1009.8
20260509010049 23 155 12.9 20.9 0.00 0.03 0.03 86 1010.1
20260509004604 23 171 14.5 20.9 0.00 0.03 0.03 85 1010.0
20260509003053 23 117 8.0 20.9 0.00 0.03 0.03 85 1009.4
20260509001551 23 154 16.1 19.3 0.00 0.03 0.03 85 1009.9
20260509000049 23 167 14.5 19.3 0.00 0.03 0.03 85 1010.1
20260508234548 23 165 9.7 17.7 0.00 0.03 0.03 85 1010.1
20260508233047 23 157 6.4 14.5 0.00 0.03 0.03 85 1010.3
20260508231545 23 168 11.3 16.1 0.00 0.03 0.03 86 1010.1
20260508230053 23 169 11.3 17.7 0.00 0.03 0.03 87 1009.9
20260508224545 23 173 11.3 14.5 0.00 0.03 0.03 87 1010.0
20260508223055 23 165 12.9 17.7 0.00 0.03 0.03 87 1010.0
20260508221548 24 190 14.5 17.7 0.00 0.03 0.03 85 1010.1
20260508220049 24 206 4.8 8.0 0.00 0.03 0.03 83 1010.2
20260508214554 24 209 4.8 6.4 0.00 0.03 0.03 83 1010.3
20260508213044 23 0 0.0 0.0 0.00 0.03 0.03 85 1010.2